Year,Month,Day,Hour,Minute,Value (Times are PST for temperature in C)
2019,07,18,00,00,12.90
2019,07,18,00,01,12.90
2019,07,18,00,02,12.90
2019,07,18,00,03,12.80
2019,07,18,00,04,12.80
2019,07,18,00,05,12.80
2019,07,18,00,06,12.80
2019,07,18,00,07,12.70
2019,07,18,00,08,12.70
2019,07,18,00,09,12.70
2019,07,18,00,10,12.60
2019,07,18,00,11,12.60
2019,07,18,00,12,12.60
2019,07,18,00,13,12.60
2019,07,18,00,14,12.50
2019,07,18,00,15,12.50
2019,07,18,00,16,12.40
2019,07,18,00,17,12.40
2019,07,18,00,18,12.40
2019,07,18,00,19,12.40
2019,07,18,00,20,12.30
2019,07,18,00,21,12.30
2019,07,18,00,22,12.30
2019,07,18,00,23,12.20
2019,07,18,00,24,12.20
2019,07,18,00,25,12.20
2019,07,18,00,26,12.20
2019,07,18,00,27,12.20
2019,07,18,00,28,12.20
2019,07,18,00,29,12.20
2019,07,18,00,30,12.20
2019,07,18,00,31,12.20
2019,07,18,00,32,12.20
2019,07,18,00,33,12.10
2019,07,18,00,34,12.10
2019,07,18,00,35,12.10
2019,07,18,00,36,12.10
2019,07,18,00,37,12.00
2019,07,18,00,38,12.00
2019,07,18,00,39,12.00
2019,07,18,00,40,12.00
2019,07,18,00,41,11.90
2019,07,18,00,42,11.90
2019,07,18,00,43,11.90
2019,07,18,00,44,11.90
2019,07,18,00,45,11.90
2019,07,18,00,46,11.90
2019,07,18,00,47,11.90
2019,07,18,00,48,11.90
2019,07,18,00,49,11.90
2019,07,18,00,50,11.90
2019,07,18,00,51,11.90
2019,07,18,00,52,11.90
2019,07,18,00,53,11.90
2019,07,18,00,54,11.90
2019,07,18,00,55,11.90
2019,07,18,00,56,11.80
2019,07,18,00,57,11.80
2019,07,18,00,58,11.80
2019,07,18,00,59,11.80
2019,07,18,01,00,11.80
2019,07,18,01,01,11.80
2019,07,18,01,02,11.80
2019,07,18,01,03,11.80
2019,07,18,01,04,11.80
2019,07,18,01,05,11.80
2019,07,18,01,06,11.80
2019,07,18,01,07,11.80
2019,07,18,01,08,11.80
2019,07,18,01,09,11.80
2019,07,18,01,10,11.80
2019,07,18,01,11,11.80
2019,07,18,01,12,11.80
2019,07,18,01,13,11.80
2019,07,18,01,14,11.90
2019,07,18,01,15,11.80
2019,07,18,01,16,11.80
2019,07,18,01,17,11.80
2019,07,18,01,18,11.80
2019,07,18,01,19,11.80
2019,07,18,01,20,11.80
2019,07,18,01,21,11.80
2019,07,18,01,22,11.80
2019,07,18,01,23,11.80
2019,07,18,01,24,11.80
2019,07,18,01,25,11.70
2019,07,18,01,26,11.70
2019,07,18,01,27,11.70
2019,07,18,01,28,11.70
2019,07,18,01,29,11.70
2019,07,18,01,30,11.60
2019,07,18,01,31,11.60
2019,07,18,01,32,11.60
2019,07,18,01,33,11.60
2019,07,18,01,34,11.50
2019,07,18,01,35,11.50
2019,07,18,01,36,11.50
2019,07,18,01,37,11.40
2019,07,18,01,38,11.40
2019,07,18,01,39,11.40
2019,07,18,01,40,11.40
2019,07,18,01,41,11.40
2019,07,18,01,42,11.30
2019,07,18,01,43,11.30
2019,07,18,01,44,11.30
2019,07,18,01,45,11.30
2019,07,18,01,46,11.30
2019,07,18,01,47,11.30
2019,07,18,01,48,11.30
2019,07,18,01,49,11.30
2019,07,18,01,50,11.30
2019,07,18,01,51,11.30
2019,07,18,01,52,11.30
2019,07,18,01,53,11.30
2019,07,18,01,54,11.30
2019,07,18,01,55,11.30
2019,07,18,01,56,11.20
2019,07,18,01,57,11.20
2019,07,18,01,58,11.20
2019,07,18,01,59,11.20
2019,07,18,02,00,11.20
2019,07,18,02,01,11.10
2019,07,18,02,02,11.10
2019,07,18,02,03,11.10
2019,07,18,02,04,11.10
2019,07,18,02,05,11.10
2019,07,18,02,06,11.00
2019,07,18,02,07,11.00
2019,07,18,02,08,11.00
2019,07,18,02,09,11.00
2019,07,18,02,10,11.00
2019,07,18,02,11,11.00
2019,07,18,02,12,11.10
2019,07,18,02,13,11.10
2019,07,18,02,14,11.10
2019,07,18,02,15,11.10
2019,07,18,02,16,11.10
2019,07,18,02,17,11.10
2019,07,18,02,18,11.10
2019,07,18,02,19,11.10
2019,07,18,02,20,11.10
2019,07,18,02,21,11.20
2019,07,18,02,22,11.20
2019,07,18,02,23,11.20
2019,07,18,02,24,11.20
2019,07,18,02,25,11.20
2019,07,18,02,26,11.20
2019,07,18,02,27,11.20
2019,07,18,02,28,11.20
2019,07,18,02,29,11.10
2019,07,18,02,30,11.10
2019,07,18,02,31,11.10
2019,07,18,02,32,11.10
2019,07,18,02,33,11.10
2019,07,18,02,34,11.10
2019,07,18,02,35,11.10
2019,07,18,02,36,11.10
2019,07,18,02,37,11.10
2019,07,18,02,38,11.10
2019,07,18,02,39,11.10
2019,07,18,02,40,11.10
2019,07,18,02,41,11.00
2019,07,18,02,42,11.00
2019,07,18,02,43,11.00
2019,07,18,02,44,11.00
2019,07,18,02,45,11.00
2019,07,18,02,46,11.00
2019,07,18,02,47,11.00
2019,07,18,02,48,11.00
2019,07,18,02,49,10.90
2019,07,18,02,50,10.90
2019,07,18,02,51,10.90
2019,07,18,02,52,10.90
2019,07,18,02,53,10.90
2019,07,18,02,54,10.90
2019,07,18,02,55,10.90
2019,07,18,02,56,10.80
2019,07,18,02,57,10.80
2019,07,18,02,58,10.80
2019,07,18,02,59,10.80
2019,07,18,03,00,10.80
2019,07,18,03,01,10.80
2019,07,18,03,02,10.80
2019,07,18,03,03,10.80
2019,07,18,03,04,10.80
2019,07,18,03,05,10.70
2019,07,18,03,06,10.70
2019,07,18,03,07,10.70
2019,07,18,03,08,10.70
2019,07,18,03,09,10.70
2019,07,18,03,10,10.70
2019,07,18,03,11,10.70
2019,07,18,03,12,10.70
2019,07,18,03,13,10.60
2019,07,18,03,14,10.60
2019,07,18,03,15,10.60
2019,07,18,03,16,10.60
2019,07,18,03,17,10.60
2019,07,18,03,18,10.60
2019,07,18,03,19,10.60
2019,07,18,03,20,10.60
2019,07,18,03,21,10.50
2019,07,18,03,22,10.50
2019,07,18,03,23,10.50
2019,07,18,03,24,10.50
2019,07,18,03,25,10.50
2019,07,18,03,26,10.50
2019,07,18,03,27,10.50
2019,07,18,03,28,10.50
2019,07,18,03,29,10.50
2019,07,18,03,30,10.40
2019,07,18,03,31,10.40
2019,07,18,03,32,10.40
2019,07,18,03,33,10.40
2019,07,18,03,34,10.40
2019,07,18,03,35,10.40
2019,07,18,03,36,10.40
2019,07,18,03,37,10.40
2019,07,18,03,38,10.40
2019,07,18,03,39,10.40
2019,07,18,03,40,10.40
2019,07,18,03,41,10.40
2019,07,18,03,42,10.40
2019,07,18,03,43,10.40
2019,07,18,03,44,10.40
2019,07,18,03,45,10.40
2019,07,18,03,46,10.40
2019,07,18,03,47,10.40
2019,07,18,03,48,10.40
2019,07,18,03,49,10.40
2019,07,18,03,50,10.40
2019,07,18,03,51,10.40
2019,07,18,03,52,10.40
2019,07,18,03,53,10.40
2019,07,18,03,54,10.40
2019,07,18,03,55,10.40
2019,07,18,03,56,10.40
2019,07,18,03,57,10.40
2019,07,18,03,58,10.40
2019,07,18,03,59,10.40
2019,07,18,04,00,10.40
2019,07,18,04,01,10.40
2019,07,18,04,02,10.40
2019,07,18,04,03,10.40
2019,07,18,04,04,10.40
2019,07,18,04,05,10.40
2019,07,18,04,06,10.40
2019,07,18,04,07,10.40
2019,07,18,04,08,10.40
2019,07,18,04,09,10.40
2019,07,18,04,10,10.40
2019,07,18,04,11,10.40
2019,07,18,04,12,10.40
2019,07,18,04,13,10.40
2019,07,18,04,14,10.40
2019,07,18,04,15,10.40
2019,07,18,04,16,10.40
2019,07,18,04,17,10.40
2019,07,18,04,18,10.40
2019,07,18,04,19,10.40
2019,07,18,04,20,10.40
2019,07,18,04,21,10.40
2019,07,18,04,22,10.40
2019,07,18,04,23,10.40
2019,07,18,04,24,10.30
2019,07,18,04,25,10.30
2019,07,18,04,26,10.30
2019,07,18,04,27,10.30
2019,07,18,04,28,10.30
2019,07,18,04,29,10.30
2019,07,18,04,30,10.30
2019,07,18,04,31,10.30
2019,07,18,04,32,10.30
2019,07,18,04,33,10.20
2019,07,18,04,34,10.20
2019,07,18,04,35,10.20
2019,07,18,04,36,10.20
2019,07,18,04,37,10.20
2019,07,18,04,38,10.10
2019,07,18,04,39,10.10
2019,07,18,04,40,10.10
2019,07,18,04,41,10.10
2019,07,18,04,42,10.10
2019,07,18,04,43,10.00
2019,07,18,04,44,10.00
2019,07,18,04,45,10.00
2019,07,18,04,46,10.00
2019,07,18,04,47,9.90
2019,07,18,04,48,9.90
2019,07,18,04,49,9.90
2019,07,18,04,50,9.90
2019,07,18,04,51,9.80
2019,07,18,04,52,9.80
2019,07,18,04,53,9.80
2019,07,18,04,54,9.80
2019,07,18,04,55,9.70
2019,07,18,04,56,9.70
2019,07,18,04,57,9.70
2019,07,18,04,58,9.60
2019,07,18,04,59,9.60
2019,07,18,05,00,9.60
2019,07,18,05,01,9.50
2019,07,18,05,02,9.50
2019,07,18,05,03,9.40
2019,07,18,05,04,9.40
2019,07,18,05,05,9.40
2019,07,18,05,06,9.30
2019,07,18,05,07,9.30
2019,07,18,05,08,9.30
2019,07,18,05,09,9.30
2019,07,18,05,10,9.20
2019,07,18,05,11,9.20
2019,07,18,05,12,9.20
2019,07,18,05,13,9.20
2019,07,18,05,14,9.20
2019,07,18,05,15,9.10
2019,07,18,05,16,9.10
2019,07,18,05,17,9.10
2019,07,18,05,18,9.10
2019,07,18,05,19,9.00
2019,07,18,05,20,9.00
2019,07,18,05,21,9.00
2019,07,18,05,22,8.90
2019,07,18,05,23,8.90
2019,07,18,05,24,8.90
2019,07,18,05,25,8.90
2019,07,18,05,26,8.90
2019,07,18,05,27,8.80
2019,07,18,05,28,8.80
2019,07,18,05,29,8.80
2019,07,18,05,30,8.80
2019,07,18,05,31,8.80
2019,07,18,05,32,8.80
2019,07,18,05,33,8.70
2019,07,18,05,34,8.70
2019,07,18,05,35,8.70
2019,07,18,05,36,8.70
2019,07,18,05,37,8.70
2019,07,18,05,38,8.70
2019,07,18,05,39,8.70
2019,07,18,05,40,8.80
2019,07,18,05,41,8.80
2019,07,18,05,42,8.80
2019,07,18,05,43,8.80
2019,07,18,05,44,8.80
2019,07,18,05,45,8.80
2019,07,18,05,46,8.80
2019,07,18,05,47,8.80
2019,07,18,05,48,8.80
2019,07,18,05,49,8.80
2019,07,18,05,50,8.80
2019,07,18,05,51,8.80
2019,07,18,05,52,8.80
2019,07,18,05,53,8.80
2019,07,18,05,54,8.80
2019,07,18,05,55,8.80
2019,07,18,05,56,8.80
2019,07,18,05,57,8.70
2019,07,18,05,58,8.70
2019,07,18,05,59,8.70
2019,07,18,06,00,8.70
2019,07,18,06,01,8.70
2019,07,18,06,02,8.70
2019,07,18,06,03,8.70
2019,07,18,06,04,8.70
2019,07,18,06,05,8.70
2019,07,18,06,06,8.70
2019,07,18,06,07,8.70
2019,07,18,06,08,8.80
2019,07,18,06,09,8.80
2019,07,18,06,10,8.80
2019,07,18,06,11,8.80
2019,07,18,06,12,8.80
2019,07,18,06,13,8.80
2019,07,18,06,14,8.90
2019,07,18,06,15,8.90
2019,07,18,06,16,8.90
2019,07,18,06,17,8.90
2019,07,18,06,18,8.90
2019,07,18,06,19,8.90
2019,07,18,06,20,8.90
2019,07,18,06,21,8.90
2019,07,18,06,22,8.90
2019,07,18,06,23,8.90
2019,07,18,06,24,8.90
2019,07,18,06,25,9.00
2019,07,18,06,26,9.00
2019,07,18,06,27,9.00
2019,07,18,06,28,9.10
2019,07,18,06,29,9.10
2019,07,18,06,30,9.10
2019,07,18,06,31,9.20
2019,07,18,06,32,9.30
2019,07,18,06,33,9.30
2019,07,18,06,34,9.40
2019,07,18,06,35,9.40
2019,07,18,06,36,9.50
2019,07,18,06,37,9.60
2019,07,18,06,38,9.60
2019,07,18,06,39,9.70
2019,07,18,06,40,9.70
2019,07,18,06,41,9.80
2019,07,18,06,42,9.90
2019,07,18,06,43,10.00
2019,07,18,06,44,10.00
2019,07,18,06,45,10.10
2019,07,18,06,46,10.20
2019,07,18,06,47,10.30
2019,07,18,06,48,10.40
2019,07,18,06,49,10.40
2019,07,18,06,50,10.50
2019,07,18,06,51,10.60
2019,07,18,06,52,10.70
2019,07,18,06,53,10.80
2019,07,18,06,54,10.80
2019,07,18,06,55,10.90
2019,07,18,06,56,11.00
2019,07,18,06,57,11.20
2019,07,18,06,58,11.30
2019,07,18,06,59,11.40
2019,07,18,07,00,11.50
2019,07,18,07,01,11.70
2019,07,18,07,02,11.80
2019,07,18,07,03,11.90
2019,07,18,07,04,12.10
2019,07,18,07,05,12.20
2019,07,18,07,06,12.30
2019,07,18,07,07,12.50
2019,07,18,07,08,12.60
2019,07,18,07,09,12.80
2019,07,18,07,10,12.90
2019,07,18,07,11,13.10
2019,07,18,07,12,13.20
2019,07,18,07,13,13.30
2019,07,18,07,14,13.50
2019,07,18,07,15,13.60
2019,07,18,07,16,13.70
2019,07,18,07,17,13.90
2019,07,18,07,18,14.00
2019,07,18,07,19,14.10
2019,07,18,07,20,14.30
2019,07,18,07,21,14.40
2019,07,18,07,22,14.50
2019,07,18,07,23,14.60
2019,07,18,07,24,14.70
2019,07,18,07,25,14.80
2019,07,18,07,26,14.90
2019,07,18,07,27,15.00
2019,07,18,07,28,15.10
2019,07,18,07,29,15.20
2019,07,18,07,30,15.30
2019,07,18,07,31,15.50
2019,07,18,07,32,15.50
2019,07,18,07,33,15.60
2019,07,18,07,34,15.70
2019,07,18,07,35,15.80
2019,07,18,07,36,15.90
2019,07,18,07,37,15.90
2019,07,18,07,38,16.00
2019,07,18,07,39,16.10
2019,07,18,07,40,16.10
2019,07,18,07,41,16.20
2019,07,18,07,42,16.30
2019,07,18,07,43,16.30
2019,07,18,07,44,16.40
2019,07,18,07,45,16.40
2019,07,18,07,46,16.50
2019,07,18,07,47,16.60
2019,07,18,07,48,16.60
2019,07,18,07,49,16.70
2019,07,18,07,50,16.70
2019,07,18,07,51,16.80
2019,07,18,07,52,16.90
2019,07,18,07,53,17.00
2019,07,18,07,54,17.00
2019,07,18,07,55,17.10
2019,07,18,07,56,17.10
2019,07,18,07,57,17.20
2019,07,18,07,58,17.20
2019,07,18,07,59,17.20
2019,07,18,08,00,17.30
2019,07,18,08,01,17.30
2019,07,18,08,02,17.30
2019,07,18,08,03,17.30
2019,07,18,08,04,17.40
2019,07,18,08,05,17.40
2019,07,18,08,06,17.50
2019,07,18,08,07,17.50
2019,07,18,08,08,17.60
2019,07,18,08,09,17.60
2019,07,18,08,10,17.60
2019,07,18,08,11,17.60
2019,07,18,08,12,17.70
2019,07,18,08,13,17.70
2019,07,18,08,14,17.70
2019,07,18,08,15,17.70
2019,07,18,08,16,17.70
2019,07,18,08,17,17.80
2019,07,18,08,18,17.80
2019,07,18,08,19,17.90
2019,07,18,08,20,17.90
2019,07,18,08,21,17.90
2019,07,18,08,22,17.90
2019,07,18,08,23,18.00
2019,07,18,08,24,18.00
2019,07,18,08,25,18.00
2019,07,18,08,26,18.00
2019,07,18,08,27,18.10
2019,07,18,08,28,18.10
2019,07,18,08,29,18.00
2019,07,18,08,30,18.00
2019,07,18,08,31,17.90
2019,07,18,08,32,17.90
2019,07,18,08,33,17.90
2019,07,18,08,34,17.90
2019,07,18,08,35,17.90
2019,07,18,08,36,17.90
2019,07,18,08,37,17.90
2019,07,18,08,38,17.90
2019,07,18,08,39,18.00
2019,07,18,08,40,18.00
2019,07,18,08,41,17.90
2019,07,18,08,42,17.90
2019,07,18,08,43,18.00
2019,07,18,08,44,18.00
2019,07,18,08,45,18.10
2019,07,18,08,46,18.20
2019,07,18,08,47,18.20
2019,07,18,08,48,18.30
2019,07,18,08,49,18.40
2019,07,18,08,50,18.40
2019,07,18,08,51,18.50
2019,07,18,08,52,18.50
2019,07,18,08,53,18.50
2019,07,18,08,54,18.50
2019,07,18,08,55,18.50
2019,07,18,08,56,18.60
2019,07,18,08,57,18.60
2019,07,18,08,58,18.60
2019,07,18,08,59,18.70
2019,07,18,09,00,18.70
2019,07,18,09,01,18.80
2019,07,18,09,02,18.90
2019,07,18,09,03,18.90
2019,07,18,09,04,19.00
2019,07,18,09,05,19.00
2019,07,18,09,06,19.10
2019,07,18,09,07,19.00
2019,07,18,09,08,19.10
2019,07,18,09,09,19.10
2019,07,18,09,10,19.10
2019,07,18,09,11,19.00
2019,07,18,09,12,19.00
2019,07,18,09,13,19.00
2019,07,18,09,14,19.00
2019,07,18,09,15,19.10
2019,07,18,09,16,19.10
2019,07,18,09,17,19.10
2019,07,18,09,18,19.20
2019,07,18,09,19,19.20
2019,07,18,09,20,19.30
2019,07,18,09,21,19.30
2019,07,18,09,22,19.30
2019,07,18,09,23,19.40
2019,07,18,09,24,19.50
2019,07,18,09,25,19.50
2019,07,18,09,26,19.50
2019,07,18,09,27,19.50
2019,07,18,09,28,19.50
2019,07,18,09,29,19.50
2019,07,18,09,30,19.50
2019,07,18,09,31,19.50
2019,07,18,09,32,19.50
2019,07,18,09,33,19.50
2019,07,18,09,34,19.40
2019,07,18,09,35,19.40
2019,07,18,09,36,19.30
2019,07,18,09,37,19.30
2019,07,18,09,38,19.30
2019,07,18,09,39,19.30
2019,07,18,09,40,19.40
2019,07,18,09,41,19.40
2019,07,18,09,42,19.50
2019,07,18,09,43,19.60
2019,07,18,09,44,19.60
2019,07,18,09,45,19.60
2019,07,18,09,46,19.60
2019,07,18,09,47,19.60
2019,07,18,09,48,19.60
2019,07,18,09,49,19.50
2019,07,18,09,50,19.50
2019,07,18,09,51,19.40
2019,07,18,09,52,19.40
2019,07,18,09,53,19.40
2019,07,18,09,54,19.30
2019,07,18,09,55,19.30
2019,07,18,09,56,19.30
2019,07,18,09,57,19.30
2019,07,18,09,58,19.30
2019,07,18,09,59,19.30
2019,07,18,10,00,19.30
2019,07,18,10,01,19.30
2019,07,18,10,02,19.40
2019,07,18,10,03,19.50
2019,07,18,10,04,19.50
2019,07,18,10,05,19.60
2019,07,18,10,06,19.60
2019,07,18,10,07,19.60
2019,07,18,10,08,19.50
2019,07,18,10,09,19.40
2019,07,18,10,10,19.30
2019,07,18,10,11,19.30
2019,07,18,10,12,19.30
2019,07,18,10,13,19.30
2019,07,18,10,14,19.30
2019,07,18,10,15,19.40
2019,07,18,10,16,19.40
2019,07,18,10,17,19.40
2019,07,18,10,18,19.50
2019,07,18,10,19,19.50
2019,07,18,10,20,19.60
2019,07,18,10,21,19.60
2019,07,18,10,22,19.60
2019,07,18,10,23,19.60
2019,07,18,10,24,19.60
2019,07,18,10,25,19.60
2019,07,18,10,26,19.70
2019,07,18,10,27,19.60
2019,07,18,10,28,19.60
2019,07,18,10,29,19.60
2019,07,18,10,30,19.50
2019,07,18,10,31,19.40
2019,07,18,10,32,19.30
2019,07,18,10,33,19.30
2019,07,18,10,34,19.40
2019,07,18,10,35,19.40
2019,07,18,10,36,19.50
2019,07,18,10,37,19.50
2019,07,18,10,38,19.60
2019,07,18,10,39,19.60
2019,07,18,10,40,19.70
2019,07,18,10,41,19.80
2019,07,18,10,42,19.80
2019,07,18,10,43,19.80
2019,07,18,10,44,19.80
2019,07,18,10,45,19.90
2019,07,18,10,46,19.90
2019,07,18,10,47,20.00
2019,07,18,10,48,20.00
2019,07,18,10,49,20.00
2019,07,18,10,50,19.90
2019,07,18,10,51,19.90
2019,07,18,10,52,19.90
2019,07,18,10,53,19.90
2019,07,18,10,54,19.90
2019,07,18,10,55,19.90
2019,07,18,10,56,19.90
2019,07,18,10,57,20.00
2019,07,18,10,58,20.00
2019,07,18,10,59,20.00
2019,07,18,11,00,20.10
2019,07,18,11,01,20.10
2019,07,18,11,02,20.20
2019,07,18,11,03,20.20
2019,07,18,11,04,20.20
2019,07,18,11,05,20.20
2019,07,18,11,06,20.10
2019,07,18,11,07,20.00
2019,07,18,11,08,19.80
2019,07,18,11,09,19.70
2019,07,18,11,10,19.70
2019,07,18,11,11,19.60
2019,07,18,11,12,19.60
2019,07,18,11,13,19.50
2019,07,18,11,14,19.50
2019,07,18,11,15,19.40
2019,07,18,11,16,19.50
2019,07,18,11,17,19.50
2019,07,18,11,18,19.60
2019,07,18,11,19,19.60
2019,07,18,11,20,19.60
2019,07,18,11,21,19.70
2019,07,18,11,22,19.70
2019,07,18,11,23,19.70
2019,07,18,11,24,19.70
2019,07,18,11,25,19.60
2019,07,18,11,26,19.60
2019,07,18,11,27,19.60
2019,07,18,11,28,19.60
2019,07,18,11,29,19.50
2019,07,18,11,30,19.60
2019,07,18,11,31,19.60
2019,07,18,11,32,19.60
2019,07,18,11,33,19.60
2019,07,18,11,34,19.70
2019,07,18,11,35,19.80
2019,07,18,11,36,19.80
2019,07,18,11,37,19.80
2019,07,18,11,38,19.80
2019,07,18,11,39,19.90
2019,07,18,11,40,19.90
2019,07,18,11,41,20.00
2019,07,18,11,42,20.00
2019,07,18,11,43,20.10
2019,07,18,11,44,20.10
2019,07,18,11,45,20.10
2019,07,18,11,46,20.20
2019,07,18,11,47,20.20
2019,07,18,11,48,20.20
2019,07,18,11,49,20.20
2019,07,18,11,50,20.20
2019,07,18,11,51,20.10
2019,07,18,11,52,20.10
2019,07,18,11,53,20.00
2019,07,18,11,54,19.90
2019,07,18,11,55,19.90
2019,07,18,11,56,19.90
2019,07,18,11,57,19.90
2019,07,18,11,58,19.90
2019,07,18,11,59,19.90
2019,07,18,12,00,19.90
2019,07,18,12,01,19.90
2019,07,18,12,02,19.90
2019,07,18,12,03,19.80
2019,07,18,12,04,19.80
2019,07,18,12,05,19.80
2019,07,18,12,06,19.80
2019,07,18,12,07,19.80
2019,07,18,12,08,19.80
2019,07,18,12,09,19.80
2019,07,18,12,10,19.80
2019,07,18,12,11,19.80
2019,07,18,12,12,19.90
2019,07,18,12,13,20.00
2019,07,18,12,14,20.10
2019,07,18,12,15,20.10
2019,07,18,12,16,20.20
2019,07,18,12,17,20.20
2019,07,18,12,18,20.20
2019,07,18,12,19,20.20
2019,07,18,12,20,20.10
2019,07,18,12,21,20.00
2019,07,18,12,22,19.90
2019,07,18,12,23,19.90
2019,07,18,12,24,19.80
2019,07,18,12,25,19.80
2019,07,18,12,26,19.80
2019,07,18,12,27,19.80
2019,07,18,12,28,19.90
2019,07,18,12,29,19.90
2019,07,18,12,30,19.90
2019,07,18,12,31,19.90
2019,07,18,12,32,19.80
2019,07,18,12,33,19.80
2019,07,18,12,34,19.80
2019,07,18,12,35,19.80
2019,07,18,12,36,19.70
2019,07,18,12,37,19.70
2019,07,18,12,38,19.70
2019,07,18,12,39,19.70
2019,07,18,12,40,19.60
2019,07,18,12,41,19.60
2019,07,18,12,42,19.60
2019,07,18,12,43,19.60
2019,07,18,12,44,19.70
2019,07,18,12,45,19.70
2019,07,18,12,46,19.80
2019,07,18,12,47,19.80
2019,07,18,12,48,19.90
2019,07,18,12,49,19.90
2019,07,18,12,50,20.00
2019,07,18,12,51,20.00
2019,07,18,12,52,20.10
2019,07,18,12,53,20.10
2019,07,18,12,54,20.10
2019,07,18,12,55,20.10
2019,07,18,12,56,20.00
2019,07,18,12,57,20.00
2019,07,18,12,58,20.00
2019,07,18,12,59,20.00
2019,07,18,13,00,20.00
2019,07,18,13,01,20.00
2019,07,18,13,02,20.00
2019,07,18,13,03,20.00
2019,07,18,13,04,20.00
2019,07,18,13,05,20.00
2019,07,18,13,06,19.90
2019,07,18,13,07,19.90
2019,07,18,13,08,19.90
2019,07,18,13,09,19.90
2019,07,18,13,10,20.00
2019,07,18,13,11,20.00
2019,07,18,13,12,20.10
2019,07,18,13,13,20.10
2019,07,18,13,14,20.10
2019,07,18,13,15,20.10
2019,07,18,13,16,20.10
2019,07,18,13,17,20.10
2019,07,18,13,18,20.10
2019,07,18,13,19,20.10
2019,07,18,13,20,20.20
2019,07,18,13,21,20.20
2019,07,18,13,22,20.20
2019,07,18,13,23,20.20
2019,07,18,13,24,20.20
2019,07,18,13,25,20.20
2019,07,18,13,26,20.10
2019,07,18,13,27,20.10
2019,07,18,13,28,20.10
2019,07,18,13,29,20.10
2019,07,18,13,30,20.10
2019,07,18,13,31,20.20
2019,07,18,13,32,20.20
2019,07,18,13,33,20.20
2019,07,18,13,34,20.30
2019,07,18,13,35,20.30
2019,07,18,13,36,20.30
2019,07,18,13,37,20.30
2019,07,18,13,38,20.30
2019,07,18,13,39,20.30
2019,07,18,13,40,20.30
2019,07,18,13,41,20.30
2019,07,18,13,42,20.30
2019,07,18,13,43,20.30
2019,07,18,13,44,20.30
2019,07,18,13,45,20.20
2019,07,18,13,46,20.20
2019,07,18,13,47,20.20
2019,07,18,13,48,20.20
2019,07,18,13,49,20.20
2019,07,18,13,50,20.20
2019,07,18,13,51,20.10
2019,07,18,13,52,20.10
2019,07,18,13,53,20.10
2019,07,18,13,54,20.10
2019,07,18,13,55,20.10
2019,07,18,13,56,20.10
2019,07,18,13,57,20.10
2019,07,18,13,58,20.10
2019,07,18,13,59,20.10
2019,07,18,14,00,20.10
2019,07,18,14,01,20.00
2019,07,18,14,02,20.00
2019,07,18,14,03,19.90
2019,07,18,14,04,19.90
2019,07,18,14,05,19.80
2019,07,18,14,06,19.70
2019,07,18,14,07,19.70
2019,07,18,14,08,19.60
2019,07,18,14,09,19.50
2019,07,18,14,10,19.40
2019,07,18,14,11,19.30
2019,07,18,14,12,19.20
2019,07,18,14,13,19.10
2019,07,18,14,14,19.00
2019,07,18,14,15,19.00
2019,07,18,14,16,18.90
2019,07,18,14,17,18.80
2019,07,18,14,18,18.80
2019,07,18,14,19,18.70
2019,07,18,14,20,18.70
2019,07,18,14,21,18.70
2019,07,18,14,22,18.70
2019,07,18,14,23,18.70
2019,07,18,14,24,18.70
2019,07,18,14,25,18.70
2019,07,18,14,26,18.80
2019,07,18,14,27,18.90
2019,07,18,14,28,18.90
2019,07,18,14,29,19.00
2019,07,18,14,30,19.10
2019,07,18,14,31,19.30
2019,07,18,14,32,19.40
2019,07,18,14,33,19.50
2019,07,18,14,34,19.60
2019,07,18,14,35,19.60
2019,07,18,14,36,19.70
2019,07,18,14,37,19.70
2019,07,18,14,38,19.80
2019,07,18,14,39,19.80
2019,07,18,14,40,19.90
2019,07,18,14,41,19.90
2019,07,18,14,42,20.00
2019,07,18,14,43,20.00
2019,07,18,14,44,20.10
2019,07,18,14,45,20.10
2019,07,18,14,46,20.10
2019,07,18,14,47,20.00
2019,07,18,14,48,20.00
2019,07,18,14,49,20.00
2019,07,18,14,50,19.90
2019,07,18,14,51,19.90
2019,07,18,14,52,19.80
2019,07,18,14,53,19.70
2019,07,18,14,54,19.70
2019,07,18,14,55,19.60
2019,07,18,14,56,19.50
2019,07,18,14,57,19.50
2019,07,18,14,58,19.40
2019,07,18,14,59,19.40
2019,07,18,15,00,19.30
2019,07,18,15,01,19.30
2019,07,18,15,02,19.20
2019,07,18,15,03,19.20
2019,07,18,15,04,19.20
2019,07,18,15,05,19.10
2019,07,18,15,06,19.00
2019,07,18,15,07,19.00
2019,07,18,15,08,18.90
2019,07,18,15,09,18.80
2019,07,18,15,10,18.80
2019,07,18,15,11,18.70
2019,07,18,15,12,18.70
2019,07,18,15,13,18.70
2019,07,18,15,14,18.70
2019,07,18,15,15,18.70
2019,07,18,15,16,18.70
2019,07,18,15,17,18.70
2019,07,18,15,18,18.80
2019,07,18,15,19,18.80
2019,07,18,15,20,18.80
2019,07,18,15,21,18.80
2019,07,18,15,22,18.80
2019,07,18,15,23,18.80
2019,07,18,15,24,18.90
2019,07,18,15,25,18.90
2019,07,18,15,26,18.90
2019,07,18,15,27,18.90
2019,07,18,15,28,18.90
2019,07,18,15,29,18.90
2019,07,18,15,30,18.90
2019,07,18,15,31,19.00
2019,07,18,15,32,19.00
2019,07,18,15,33,19.10
2019,07,18,15,34,19.10
2019,07,18,15,35,19.20
2019,07,18,15,36,19.20
2019,07,18,15,37,19.20
2019,07,18,15,38,19.20
2019,07,18,15,39,19.20
2019,07,18,15,40,19.20
2019,07,18,15,41,19.20
2019,07,18,15,42,19.20
2019,07,18,15,43,19.20
2019,07,18,15,44,19.20
2019,07,18,15,45,19.20
2019,07,18,15,46,19.20
2019,07,18,15,47,19.10
2019,07,18,15,48,19.10
2019,07,18,15,49,19.10
2019,07,18,15,50,19.10
2019,07,18,15,51,19.10
2019,07,18,15,52,19.10
2019,07,18,15,53,19.10
2019,07,18,15,54,19.10
2019,07,18,15,55,19.10
2019,07,18,15,56,19.10
2019,07,18,15,57,19.10
2019,07,18,15,58,19.10
2019,07,18,15,59,19.10
2019,07,18,16,00,19.10
2019,07,18,16,01,19.10
2019,07,18,16,02,19.10
2019,07,18,16,03,19.10
2019,07,18,16,04,19.10
2019,07,18,16,05,19.10
2019,07,18,16,06,19.10
2019,07,18,16,07,19.10
2019,07,18,16,08,19.20
2019,07,18,16,09,19.20
2019,07,18,16,10,19.20
2019,07,18,16,11,19.20
2019,07,18,16,12,19.20
2019,07,18,16,13,19.20
2019,07,18,16,14,19.20
2019,07,18,16,15,19.30
2019,07,18,16,16,19.20
2019,07,18,16,17,19.20
2019,07,18,16,18,19.30
2019,07,18,16,19,19.30
2019,07,18,16,20,19.40
2019,07,18,16,21,19.40
2019,07,18,16,22,19.40
2019,07,18,16,23,19.50
2019,07,18,16,24,19.50
2019,07,18,16,25,19.50
2019,07,18,16,26,19.50
2019,07,18,16,27,19.50
2019,07,18,16,28,19.50
2019,07,18,16,29,19.40
2019,07,18,16,30,19.40
2019,07,18,16,31,19.40
2019,07,18,16,32,19.30
2019,07,18,16,33,19.30
2019,07,18,16,34,19.20
2019,07,18,16,35,19.20
2019,07,18,16,36,19.20
2019,07,18,16,37,19.20
2019,07,18,16,38,19.10
2019,07,18,16,39,19.10
2019,07,18,16,40,19.10
2019,07,18,16,41,19.10
2019,07,18,16,42,19.10
2019,07,18,16,43,19.10
2019,07,18,16,44,19.00
2019,07,18,16,45,19.00
2019,07,18,16,46,19.00
2019,07,18,16,47,19.00
2019,07,18,16,48,19.00
2019,07,18,16,49,19.00
2019,07,18,16,50,19.00
2019,07,18,16,51,19.00
2019,07,18,16,52,19.10
2019,07,18,16,53,19.10
2019,07,18,16,54,19.10
2019,07,18,16,55,19.10
2019,07,18,16,56,19.10
2019,07,18,16,57,19.20
2019,07,18,16,58,19.10
2019,07,18,16,59,19.10
2019,07,18,17,00,19.10
2019,07,18,17,01,19.10
2019,07,18,17,02,19.10
2019,07,18,17,03,19.10
2019,07,18,17,04,19.10
2019,07,18,17,05,19.10
2019,07,18,17,06,19.10
2019,07,18,17,07,19.10
2019,07,18,17,08,19.10
2019,07,18,17,09,19.10
2019,07,18,17,10,19.10
2019,07,18,17,11,19.10
2019,07,18,17,12,19.10
2019,07,18,17,13,19.10
2019,07,18,17,14,19.10
2019,07,18,17,15,19.10
2019,07,18,17,16,19.10
2019,07,18,17,17,19.10
2019,07,18,17,18,19.10
2019,07,18,17,19,19.10
2019,07,18,17,20,19.10
2019,07,18,17,21,19.10
2019,07,18,17,22,19.10
2019,07,18,17,23,19.10
2019,07,18,17,24,19.10